FRS39N EDDW-EDWG

Flight info

Callsign FRS39N
Flight time 0h 34m
Altitude 3000
Route EDDW DCT EDWG DAYLIGHT, CARTS ,VFR , V
Aircraft C172/L-SDE3/7000

Departure

Time 2026-04-21 16:14
Airport Bremen Airport (EDDW)

Arrival

Time 2026-04-21 16:48
Airport Wangerooge Airport (EDWG)
Time Latitude Longitude Altitude Speed Heading
2026-04-21 16:09 53.04884 8.78388 14 ft 0 kts 228°
2026-04-21 16:10 53.04883 8.78384 14 ft 5 kts 242°
2026-04-21 16:11 53.04855 8.78406 14 ft 7 kts 96°
2026-04-21 16:11 53.04850 8.78495 14 ft 9 kts 94°
2026-04-21 16:11 53.04848 8.78585 14 ft 7 kts 88°
2026-04-21 16:11 53.04833 8.78645 14 ft 6 kts 140°
2026-04-21 16:12 53.04793 8.78664 14 ft 5 kts 179°
2026-04-21 16:12 53.04788 8.78664 14 ft 0 kts 176°
2026-04-21 16:12 53.04755 8.78668 14 ft 11 kts 173°
2026-04-21 16:13 53.04691 8.78766 15 ft 14 kts 95°
2026-04-21 16:13 53.04696 8.79113 15 ft 54 kts 88°
2026-04-21 16:13 53.04707 8.79921 132 ft 73 kts 91°
2026-04-21 16:13 53.04699 8.80755 376 ft 71 kts 90°
2026-04-21 16:14 53.04710 8.81575 596 ft 71 kts 87°
2026-04-21 16:14 53.04731 8.82365 860 ft 65 kts 82°
2026-04-21 16:14 53.04922 8.83026 1068 ft 69 kts 44°
2026-04-21 16:14 53.05334 8.83396 1248 ft 70 kts
2026-04-21 16:15 53.05831 8.83277 1382 ft 79 kts 334°
2026-04-21 16:15 53.06346 8.82830 1515 ft 89 kts 326°
2026-04-21 16:15 53.06882 8.82212 1538 ft 99 kts 322°
2026-04-21 16:15 53.07425 8.81468 1562 ft 104 kts 318°
2026-04-21 16:16 53.07981 8.80627 1523 ft 111 kts 316°
2026-04-21 16:16 53.08539 8.79738 1486 ft 111 kts 315°
2026-04-21 16:16 53.09086 8.78829 1451 ft 111 kts 313°
2026-04-21 16:16 53.09629 8.77904 1406 ft 113 kts 316°
2026-04-21 16:17 53.10242 8.77083 1361 ft 114 kts 320°
2026-04-21 16:17 53.10862 8.76259 1318 ft 114 kts 320°
2026-04-21 16:17 53.11474 8.75446 1288 ft 113 kts 320°
2026-04-21 16:17 53.12079 8.74629 1292 ft 111 kts 316°
2026-04-21 16:18 53.12680 8.73833 1284 ft 110 kts 321°
2026-04-21 16:18 53.13280 8.73062 1277 ft 108 kts 320°
2026-04-21 16:18 53.13872 8.72303 1276 ft 107 kts 320°
2026-04-21 16:18 53.14457 8.71537 1271 ft 107 kts 320°
2026-04-21 16:19 53.15044 8.70764 1272 ft 109 kts 320°
2026-04-21 16:19 53.15649 8.69966 1275 ft 112 kts 320°
2026-04-21 16:19 53.16262 8.69153 1278 ft 113 kts 320°
2026-04-21 16:19 53.16881 8.68332 1280 ft 114 kts 320°
2026-04-21 16:20 53.17499 8.67510 1282 ft 114 kts 319°
2026-04-21 16:20 53.18118 8.66676 1285 ft 115 kts 319°
2026-04-21 16:20 53.18732 8.65811 1290 ft 115 kts 315°
2026-04-21 16:20 53.19360 8.64967 1285 ft 116 kts 321°
2026-04-21 16:21 53.19988 8.64149 1287 ft 116 kts 320°
2026-04-21 16:21 53.20621 8.63299 1285 ft 115 kts 319°
2026-04-21 16:21 53.21232 8.62457 1293 ft 115 kts 319°
2026-04-21 16:21 53.21846 8.61587 1293 ft 116 kts 317°
2026-04-21 16:22 53.22464 8.60707 1290 ft 116 kts 317°
2026-04-21 16:22 53.23059 8.59818 1362 ft 111 kts 315°
2026-04-21 16:22 53.23575 8.58932 1515 ft 101 kts 311°
2026-04-21 16:22 53.24058 8.58098 1638 ft 99 kts 313°
2026-04-21 16:23 53.24546 8.57281 1770 ft 97 kts 311°
2026-04-21 16:23 53.24989 8.56455 1883 ft 96 kts 310°
2026-04-21 16:23 53.25406 8.55631 2038 ft 91 kts 303°
2026-04-21 16:23 53.25754 8.54762 2160 ft 91 kts 302°
2026-04-21 16:24 53.26116 8.53920 2293 ft 89 kts 316°
2026-04-21 16:24 53.26604 8.53277 2426 ft 88 kts 318°
2026-04-21 16:24 53.27096 8.52612 2471 ft 96 kts 319°
2026-04-21 16:24 53.27639 8.51871 2470 ft 105 kts 319°
2026-04-21 16:25 53.28219 8.51072 2473 ft 110 kts 319°
2026-04-21 16:25 53.28816 8.50247 2470 ft 112 kts 319°
2026-04-21 16:25 53.29421 8.49409 2471 ft 113 kts 319°
2026-04-21 16:25 53.30031 8.48564 2471 ft 114 kts 319°
2026-04-21 16:26 53.30644 8.47712 2470 ft 114 kts 319°
2026-04-21 16:26 53.31255 8.46860 2469 ft 115 kts 318°
2026-04-21 16:26 53.31867 8.46005 2467 ft 114 kts 318°
2026-04-21 16:26 53.32473 8.45157 2467 ft 114 kts 318°
2026-04-21 16:27 53.33078 8.44311 2467 ft 114 kts 318°
2026-04-21 16:27 53.33685 8.43461 2467 ft 114 kts 318°
2026-04-21 16:27 53.34295 8.42606 2468 ft 114 kts 318°
2026-04-21 16:27 53.34899 8.41756 2468 ft 115 kts 318°
2026-04-21 16:28 53.35512 8.40893 2469 ft 115 kts 318°
2026-04-21 16:28 53.36120 8.40033 2468 ft 114 kts 318°
2026-04-21 16:28 53.36722 8.39183 2468 ft 114 kts 318°
2026-04-21 16:28 53.37327 8.38326 2468 ft 114 kts 318°
2026-04-21 16:29 53.37736 8.37748 2467 ft 114 kts 318°
2026-04-21 16:29 53.38537 8.36615 2467 ft 114 kts 318°
2026-04-21 16:29 53.39143 8.35758 2467 ft 114 kts 318°
2026-04-21 16:29 53.39751 8.34897 2467 ft 115 kts 318°
2026-04-21 16:30 53.40355 8.34042 2468 ft 115 kts 318°
2026-04-21 16:30 53.40965 8.33177 2471 ft 115 kts 318°
2026-04-21 16:30 53.41580 8.32302 2472 ft 116 kts 317°
2026-04-21 16:30 53.42196 8.31423 2468 ft 116 kts 318°
2026-04-21 16:31 53.42807 8.30549 2467 ft 115 kts 318°
2026-04-21 16:31 53.43415 8.29678 2466 ft 115 kts 318°
2026-04-21 16:31 53.44021 8.28806 2466 ft 115 kts 317°
2026-04-21 16:31 53.44626 8.27934 2466 ft 115 kts 317°
2026-04-21 16:32 53.45231 8.27063 2465 ft 114 kts 317°
2026-04-21 16:32 53.45825 8.26202 2464 ft 114 kts 317°
2026-04-21 16:32 53.46423 8.25336 2464 ft 114 kts 317°
2026-04-21 16:32 53.47022 8.24468 2465 ft 114 kts 317°
2026-04-21 16:33 53.47623 8.23595 2465 ft 114 kts 317°
2026-04-21 16:33 53.48225 8.22718 2465 ft 115 kts 317°
2026-04-21 16:33 53.48828 8.21838 2466 ft 115 kts 317°
2026-04-21 16:33 53.49427 8.20961 2466 ft 115 kts 317°
2026-04-21 16:34 53.50032 8.20076 2466 ft 115 kts 317°
2026-04-21 16:34 53.50635 8.19193 2466 ft 115 kts 317°
2026-04-21 16:34 53.51241 8.18304 2467 ft 116 kts 317°
2026-04-21 16:34 53.51849 8.17410 2467 ft 116 kts 317°
2026-04-21 16:35 53.52454 8.16518 2468 ft 116 kts 317°
2026-04-21 16:35 53.53065 8.15613 2471 ft 119 kts 317°
2026-04-21 16:35 53.53681 8.14698 2467 ft 120 kts 317°
2026-04-21 16:35 53.54301 8.13782 2465 ft 118 kts 317°
2026-04-21 16:36 53.54913 8.12878 2465 ft 117 kts 317°
2026-04-21 16:36 53.55522 8.11976 2464 ft 116 kts 316°
2026-04-21 16:36 53.56129 8.11078 2462 ft 116 kts 317°
2026-04-21 16:36 53.56732 8.10185 2462 ft 115 kts 317°
2026-04-21 16:37 53.57333 8.09291 2460 ft 115 kts 317°
2026-04-21 16:37 53.57935 8.08397 2460 ft 115 kts 317°
2026-04-21 16:37 53.58534 8.07507 2462 ft 115 kts 317°
2026-04-21 16:37 53.59135 8.06613 2460 ft 115 kts 316°
2026-04-21 16:38 53.59727 8.05731 2464 ft 114 kts 316°
2026-04-21 16:38 53.60323 8.04841 2459 ft 114 kts 316°
2026-04-21 16:38 53.60918 8.03952 2460 ft 114 kts 316°
2026-04-21 16:38 53.61512 8.03061 2459 ft 114 kts 316°
2026-04-21 16:39 53.62099 8.02179 2461 ft 114 kts 316°
2026-04-21 16:39 53.62675 8.01312 2455 ft 108 kts 316°
2026-04-21 16:39 53.63226 8.00486 2456 ft 104 kts 316°
2026-04-21 16:39 53.63759 7.99686 2454 ft 102 kts 316°
2026-04-21 16:40 53.64290 7.98889 2430 ft 103 kts 316°
2026-04-21 16:40 53.64807 7.98112 2400 ft 99 kts 316°
2026-04-21 16:40 53.65312 7.97353 2355 ft 96 kts 316°
2026-04-21 16:40 53.65813 7.96598 2280 ft 97 kts 316°
2026-04-21 16:41 53.66146 7.96096 2223 ft 97 kts 316°
2026-04-21 16:41 53.66835 7.95078 2092 ft 100 kts 320°
2026-04-21 16:41 53.67205 7.94608 2026 ft 101 kts 322°
2026-04-21 16:41 53.67801 7.93974 1927 ft 101 kts 328°
2026-04-21 16:42 53.68594 7.93208 1796 ft 97 kts 328°
2026-04-21 16:42 53.69153 7.92672 1782 ft 87 kts 328°
2026-04-21 16:42 53.69490 7.92349 1779 ft 81 kts 327°
2026-04-21 16:42 53.69955 7.91910 1742 ft 75 kts 328°
2026-04-21 16:43 53.70475 7.91767 1666 ft 76 kts 358°
2026-04-21 16:43 53.70998 7.91850 1536 ft 77 kts
2026-04-21 16:43 53.71521 7.91981 1402 ft 75 kts
2026-04-21 16:43 53.72053 7.92081 1255 ft 79 kts
2026-04-21 16:44 53.72596 7.92173 1129 ft 78 kts 359°
2026-04-21 16:44 53.73141 7.92157 997 ft 80 kts 355°
2026-04-21 16:44 53.73682 7.92117 908 ft 76 kts 352°
2026-04-21 16:44 53.74181 7.91969 885 ft 70 kts 339°
2026-04-21 16:45 53.74546 7.91522 829 ft 70 kts 304°
2026-04-21 16:45 53.74794 7.90770 713 ft 76 kts 295°
2026-04-21 16:45 53.75077 7.90080 714 ft 71 kts 315°
2026-04-21 16:45 53.75479 7.89589 725 ft 74 kts 325°
2026-04-21 16:46 53.75926 7.89130 730 ft 76 kts 327°
2026-04-21 16:46 53.76395 7.88700 725 ft 79 kts 330°
2026-04-21 16:46 53.76885 7.88378 765 ft 72 kts 338°
2026-04-21 16:46 53.77355 7.88127 766 ft 72 kts 342°
2026-04-21 16:47 53.77822 7.88028 734 ft 70 kts
2026-04-21 16:47 53.78198 7.88413 653 ft 65 kts 44°
2026-04-21 16:47 53.78422 7.89059 537 ft 63 kts 84°
2026-04-21 16:47 53.78374 7.89828 370 ft 67 kts 96°
2026-04-21 16:48 53.78316 7.90597 182 ft 66 kts 96°
2026-04-21 16:48 53.78291 7.91158 48 ft 0 kts 92°